Time,TemperatureF,DewpointF,PressureIn,WindDirection,WindDirectionDegrees,WindSpeedMPH,WindSpeedGustMPH,Humidity,HourlyPrecipIn,Conditions,Clouds,dailyrainin,SoftwareType,DateUTC
2013-04-02 00:00:00,71.8,66.4,30.05,West,276,0.0,0.0,83,0.00,,,0.00,Wunderground v.1.15,2013-04-02 04:00:00,
2013-04-02 00:04:00,71.9,66.5,30.05,West,269,1.0,2.0,83,0.00,,,0.00,Wunderground v.1.15,2013-04-02 04:04:00,
2013-04-02 00:07:00,71.9,66.5,30.05,WNW,295,2.0,2.0,83,0.00,,,0.00,Wunderground v.1.15,2013-04-02 04:07:00,
2013-04-02 00:12:00,72.0,66.2,30.05,WNW,291,0.0,2.0,82,0.00,,,0.00,Wunderground v.1.15,2013-04-02 04:12:00,
2013-04-02 00:18:00,72.0,66.2,30.05,WNW,295,1.0,2.0,82,0.00,,,0.00,Wunderground v.1.15,2013-04-02 04:18:00,
2013-04-02 00:23:00,72.0,66.2,30.05,NW,321,0.0,1.0,82,0.00,,,0.00,Wunderground v.1.15,2013-04-02 04:23:00,
2013-04-02 00:28:00,71.8,66.0,30.05,WNW,288,1.0,3.0,82,0.00,,,0.00,Wunderground v.1.15,2013-04-02 04:28:00,
2013-04-02 00:33:00,71.8,66.0,30.05,West,273,0.0,1.0,82,0.00,,,0.00,Wunderground v.1.15,2013-04-02 04:33:00,
2013-04-02 00:39:00,71.6,65.8,30.05,NW,307,1.0,2.0,82,0.00,,,0.00,Wunderground v.1.15,2013-04-02 04:39:00,
2013-04-02 00:45:00,71.6,65.8,30.05,West,266,1.0,2.0,82,0.00,,,0.00,Wunderground v.1.15,2013-04-02 04:45:00,
2013-04-02 00:50:00,71.3,65.9,30.05,NW,304,0.0,1.0,83,0.00,,,0.00,Wunderground v.1.15,2013-04-02 04:50:00,
2013-04-02 00:55:00,71.2,65.8,30.05,WNW,285,0.0,1.0,83,0.00,,,0.00,Wunderground v.1.15,2013-04-02 04:55:00,
2013-04-02 01:00:00,71.0,65.6,30.05,West,280,0.0,1.0,83,0.00,,,0.00,Wunderground v.1.15,2013-04-02 05:00:00,
2013-04-02 01:06:00,70.8,65.7,30.05,NW,311,0.0,1.0,84,0.00,,,0.00,Wunderground v.1.15,2013-04-02 05:06:00,
2013-04-02 01:11:00,70.6,65.9,30.05,NW,310,1.0,1.0,85,0.00,,,0.00,Wunderground v.1.15,2013-04-02 05:11:00,
2013-04-02 01:17:00,70.5,65.8,30.05,West,278,0.0,2.0,85,0.00,,,0.00,Wunderground v.1.15,2013-04-02 05:17:00,
2013-04-02 01:22:00,70.2,65.8,30.05,West,276,0.0,2.0,86,0.00,,,0.00,Wunderground v.1.15,2013-04-02 05:22:00,
2013-04-02 01:27:00,70.1,65.7,30.05,NW,308,0.0,2.0,86,0.00,,,0.00,Wunderground v.1.15,2013-04-02 05:27:00,
2013-04-02 01:33:00,69.7,65.7,30.05,WNW,300,0.0,0.0,87,0.00,,,0.00,Wunderground v.1.15,2013-04-02 05:33:00,
2013-04-02 01:39:00,69.6,65.6,30.05,West,278,0.0,1.0,87,0.00,,,0.00,Wunderground v.1.15,2013-04-02 05:39:00,
2013-04-02 01:45:00,69.4,65.7,30.05,NW,308,0.0,0.0,88,0.00,,,0.00,Wunderground v.1.15,2013-04-02 05:45:00,
2013-04-02 01:51:00,69.2,65.5,30.05,WNW,285,0.0,0.0,88,0.00,,,0.00,Wunderground v.1.15,2013-04-02 05:51:00,
2013-04-02 01:57:00,69.1,65.4,30.05,WNW,288,0.0,0.0,88,0.00,,,0.00,Wunderground v.1.15,2013-04-02 05:57:00,
2013-04-02 02:02:00,68.9,65.5,30.05,WNW,288,0.0,0.0,89,0.00,,,0.00,Wunderground v.1.15,2013-04-02 06:02:00,
2013-04-02 02:07:00,68.8,65.4,30.04,WNW,288,0.0,0.0,89,0.00,,,0.00,Wunderground v.1.15,2013-04-02 06:07:00,
2013-04-02 02:12:00,68.6,65.2,30.04,WNW,288,0.0,0.0,89,0.00,,,0.00,Wunderground v.1.15,2013-04-02 06:12:00,
2013-04-02 02:17:00,68.4,65.0,30.04,WNW,291,0.0,0.0,89,0.00,,,0.00,Wunderground v.1.15,2013-04-02 06:17:00,
2013-04-02 02:22:00,68.2,65.2,30.04,WNW,290,0.0,0.0,90,0.00,,,0.00,Wunderground v.1.15,2013-04-02 06:22:00,
2013-04-02 02:27:00,68.1,65.4,30.04,NW,304,0.0,0.0,91,0.00,,,0.00,Wunderground v.1.15,2013-04-02 06:27:00,
2013-04-02 02:32:00,68.1,65.4,30.04,WNW,302,0.0,0.0,91,0.00,,,0.00,Wunderground v.1.15,2013-04-02 06:32:00,
2013-04-02 02:37:00,68.3,65.6,30.04,WNW,302,0.0,0.0,91,0.00,,,0.00,Wunderground v.1.15,2013-04-02 06:37:00,
2013-04-02 02:42:00,68.3,65.6,30.03,WNW,302,0.0,0.0,91,0.00,,,0.00,Wunderground v.1.15,2013-04-02 06:42:00,
2013-04-02 02:47:00,68.1,65.4,30.03,WNW,302,0.0,0.0,91,0.00,,,0.00,Wunderground v.1.15,2013-04-02 06:47:00,
2013-04-02 02:52:00,67.9,65.2,30.04,WNW,302,0.0,0.0,91,0.00,,,0.00,Wunderground v.1.15,2013-04-02 06:52:00,
2013-04-02 02:57:00,67.9,65.5,30.03,WNW,290,0.0,0.0,92,0.00,,,0.00,Wunderground v.1.15,2013-04-02 06:57:00,
2013-04-02 03:02:00,68.1,65.7,30.03,WSW,253,0.0,1.0,92,0.00,,,0.00,Wunderground v.1.15,2013-04-02 07:02:00,
2013-04-02 03:07:00,68.1,65.7,30.03,WSW,248,0.0,1.0,92,0.00,,,0.00,Wunderground v.1.15,2013-04-02 07:07:00,
2013-04-02 03:13:00,68.0,65.6,30.02,WSW,248,0.0,0.0,92,0.00,,,0.00,Wunderground v.1.15,2013-04-02 07:13:00,
2013-04-02 03:18:00,67.9,65.5,30.02,WSW,249,0.0,0.0,92,0.00,,,0.00,Wunderground v.1.15,2013-04-02 07:18:00,
2013-04-02 03:23:00,67.9,65.5,30.02,WSW,249,0.0,0.0,92,0.00,,,0.00,Wunderground v.1.15,2013-04-02 07:23:00,
2013-04-02 03:28:00,67.7,65.3,30.02,WSW,249,0.0,0.0,92,0.00,,,0.00,Wunderground v.1.15,2013-04-02 07:28:00,
2013-04-02 03:33:00,67.6,65.5,30.02,WSW,249,0.0,0.0,93,0.00,,,0.00,Wunderground v.1.15,2013-04-02 07:33:00,
2013-04-02 03:38:00,67.7,65.6,30.02,WSW,249,0.0,0.0,93,0.00,,,0.00,Wunderground v.1.15,2013-04-02 07:38:00,
2013-04-02 03:44:00,67.6,65.2,30.02,WSW,249,0.0,0.0,92,0.00,,,0.00,Wunderground v.1.15,2013-04-02 07:44:00,
2013-04-02 03:49:00,67.7,65.6,30.02,WSW,249,0.0,0.0,93,0.00,,,0.00,Wunderground v.1.15,2013-04-02 07:49:00,
2013-04-02 03:54:00,67.7,65.6,30.02,WNW,290,0.0,1.0,93,0.00,,,0.00,Wunderground v.1.15,2013-04-02 07:54:00,
2013-04-02 03:59:00,67.5,65.4,30.02,WNW,294,0.0,1.0,93,0.00,,,0.00,Wunderground v.1.15,2013-04-02 07:59:00,
2013-04-02 04:04:00,67.5,65.4,30.01,WNW,293,0.0,0.0,93,0.00,,,0.00,Wunderground v.1.15,2013-04-02 08:04:00,
2013-04-02 04:09:00,67.5,65.4,30.02,WSW,243,0.0,0.0,93,0.00,,,0.00,Wunderground v.1.15,2013-04-02 08:09:00,
2013-04-02 04:14:00,67.5,65.7,30.02,SW,219,0.0,1.0,94,0.00,,,0.00,Wunderground v.1.15,2013-04-02 08:14:00,
2013-04-02 04:19:00,67.4,65.6,30.02,SW,221,0.0,1.0,94,0.00,,,0.00,Wunderground v.1.15,2013-04-02 08:19:00,
2013-04-02 04:24:00,67.3,65.2,30.02,SW,221,0.0,0.0,93,0.00,,,0.00,Wunderground v.1.15,2013-04-02 08:24:00,
2013-04-02 04:29:00,66.9,64.8,30.02,WSW,256,0.0,1.0,93,0.00,,,0.00,Wunderground v.1.15,2013-04-02 08:29:00,
2013-04-02 04:34:00,66.9,65.1,30.02,WSW,255,0.0,0.0,94,0.00,,,0.00,Wunderground v.1.15,2013-04-02 08:34:00,
2013-04-02 04:39:00,66.8,65.0,30.02,WSW,239,0.0,1.0,94,0.00,,,0.00,Wunderground v.1.15,2013-04-02 08:39:00,
2013-04-02 04:44:00,66.7,64.9,30.02,WSW,238,0.0,0.0,94,0.00,,,0.00,Wunderground v.1.15,2013-04-02 08:44:00,
2013-04-02 04:49:00,66.6,64.8,30.02,WSW,239,0.0,0.0,94,0.00,,,0.00,Wunderground v.1.15,2013-04-02 08:49:00,
2013-04-02 04:54:00,66.3,64.5,30.02,WSW,239,0.0,0.0,94,0.00,,,0.00,Wunderground v.1.15,2013-04-02 08:54:00,
2013-04-02 04:59:00,66.5,65.0,30.02,WSW,239,0.0,0.0,95,0.00,,,0.00,Wunderground v.1.15,2013-04-02 08:59:00,
2013-04-02 05:04:00,66.4,64.9,30.02,WSW,239,0.0,0.0,95,0.00,,,0.00,Wunderground v.1.15,2013-04-02 09:04:00,
2013-04-02 05:09:00,66.4,64.9,30.02,WSW,239,0.0,0.0,95,0.00,,,0.00,Wunderground v.1.15,2013-04-02 09:09:00,
2013-04-02 05:14:00,66.2,64.7,30.02,WSW,239,0.0,0.0,95,0.00,,,0.00,Wunderground v.1.15,2013-04-02 09:14:00,
2013-04-02 05:19:00,66.0,64.5,30.02,WSW,239,0.0,0.0,95,0.00,,,0.00,Wunderground v.1.15,2013-04-02 09:19:00,
2013-04-02 05:24:00,66.1,64.6,30.02,WSW,239,0.0,0.0,95,0.00,,,0.00,Wunderground v.1.15,2013-04-02 09:24:00,
2013-04-02 05:30:00,65.9,64.4,30.02,WSW,239,0.0,0.0,95,0.00,,,0.00,Wunderground v.1.15,2013-04-02 09:30:00,
2013-04-02 05:35:00,66.0,64.8,30.02,WSW,238,0.0,0.0,96,0.00,,,0.00,Wunderground v.1.15,2013-04-02 09:35:00,
2013-04-02 05:40:00,65.8,64.3,30.03,WSW,239,0.0,0.0,95,0.00,,,0.00,Wunderground v.1.15,2013-04-02 09:40:00,
2013-04-02 05:45:00,65.6,64.1,30.03,WSW,239,0.0,0.0,95,0.00,,,0.00,Wunderground v.1.15,2013-04-02 09:45:00,
2013-04-02 05:50:00,65.6,64.1,30.03,WSW,239,0.0,0.0,95,0.00,,,0.00,Wunderground v.1.15,2013-04-02 09:50:00,
2013-04-02 05:55:00,65.5,64.3,30.03,NNW,331,0.0,0.0,96,0.00,,,0.00,Wunderground v.1.15,2013-04-02 09:55:00,
2013-04-02 06:00:00,65.7,64.5,30.03,NNE,16,0.0,0.0,96,0.00,,,0.00,Wunderground v.1.15,2013-04-02 10:00:00,
2013-04-02 06:05:00,65.8,64.6,30.03,NNE,17,0.0,1.0,96,0.00,,,0.00,Wunderground v.1.15,2013-04-02 10:05:00,
2013-04-02 06:10:00,65.8,64.6,30.03,NNE,17,0.0,0.0,96,0.00,,,0.00,Wunderground v.1.15,2013-04-02 10:10:00,
2013-04-02 06:15:00,65.8,64.6,30.03,North,9,0.0,0.0,96,0.00,,,0.00,Wunderground v.1.15,2013-04-02 10:15:00,
2013-04-02 06:20:00,65.6,64.4,30.03,North,9,0.0,0.0,96,0.00,,,0.00,Wunderground v.1.15,2013-04-02 10:20:00,
2013-04-02 06:25:00,65.6,64.4,30.03,North,9,0.0,0.0,96,0.00,,,0.00,Wunderground v.1.15,2013-04-02 10:25:00,
2013-04-02 06:30:00,65.7,64.5,30.03,NW,311,0.0,0.0,96,0.00,,,0.00,Wunderground v.1.15,2013-04-02 10:30:00,
2013-04-02 06:35:00,65.9,64.7,30.04,NW,325,0.0,0.0,96,0.00,,,0.00,Wunderground v.1.15,2013-04-02 10:35:00,
2013-04-02 06:40:00,65.8,64.6,30.04,North,354,0.0,0.0,96,0.00,,,0.00,Wunderground v.1.15,2013-04-02 10:40:00,
2013-04-02 06:45:00,65.8,64.6,30.04,North,354,0.0,0.0,96,0.00,,,0.00,Wunderground v.1.15,2013-04-02 10:45:00,
2013-04-02 06:50:00,65.8,64.6,30.04,North,354,0.0,0.0,96,0.00,,,0.00,Wunderground v.1.15,2013-04-02 10:50:00,
2013-04-02 06:55:00,65.6,64.4,30.04,North,354,0.0,0.0,96,0.00,,,0.00,Wunderground v.1.15,2013-04-02 10:55:00,
2013-04-02 07:00:00,65.5,64.3,30.04,North,351,0.0,0.0,96,0.00,,,0.00,Wunderground v.1.15,2013-04-02 11:00:00,
2013-04-02 07:05:00,65.6,64.7,30.04,North,354,0.0,0.0,97,0.00,,,0.00,Wunderground v.1.15,2013-04-02 11:05:00,
2013-04-02 07:10:00,65.5,64.3,30.05,North,354,0.0,0.0,96,0.00,,,0.00,Wunderground v.1.15,2013-04-02 11:10:00,
2013-04-02 07:15:00,65.5,64.6,30.05,North,359,0.0,0.0,97,0.00,,,0.00,Wunderground v.1.15,2013-04-02 11:15:00,
2013-04-02 07:20:00,65.7,64.8,30.05,NNE,25,0.0,0.0,97,0.00,,,0.00,Wunderground v.1.15,2013-04-02 11:20:00,
2013-04-02 07:25:00,66.0,65.1,30.06,NNE,25,0.0,0.0,97,0.00,,,0.00,Wunderground v.1.15,2013-04-02 11:25:00,
2013-04-02 07:30:00,66.3,65.4,30.06,North,356,0.0,0.0,97,0.00,,,0.00,Wunderground v.1.15,2013-04-02 11:30:00,
2013-04-02 07:35:00,66.5,65.6,30.06,WNW,298,0.0,0.0,97,0.00,,,0.00,Wunderground v.1.15,2013-04-02 11:35:00,
2013-04-02 07:40:00,66.7,65.8,30.06,WNW,298,0.0,1.0,97,0.00,,,0.00,Wunderground v.1.15,2013-04-02 11:40:00,
2013-04-02 07:45:00,66.8,65.9,30.07,NNE,12,0.0,2.0,97,0.00,,,0.00,Wunderground v.1.15,2013-04-02 11:45:00,
2013-04-02 07:50:00,66.9,66.0,30.07,NNE,26,1.0,1.0,97,0.00,,,0.00,Wunderground v.1.15,2013-04-02 11:50:00,
2013-04-02 07:55:00,66.9,66.0,30.07,NE,53,1.0,1.0,97,0.00,,,0.00,Wunderground v.1.15,2013-04-02 11:55:00,
2013-04-02 08:00:00,66.9,66.0,30.07,North,359,0.0,0.0,97,0.00,,,0.00,Wunderground v.1.15,2013-04-02 12:00:00,
2013-04-02 08:05:00,67.0,66.1,30.07,NNE,12,0.0,1.0,97,0.00,,,0.00,Wunderground v.1.15,2013-04-02 12:05:00,
2013-04-02 08:10:00,67.2,66.3,30.08,NNE,25,0.0,2.0,97,0.00,,,0.00,Wunderground v.1.15,2013-04-02 12:10:00,
2013-04-02 08:15:00,67.2,66.3,30.08,NNW,336,0.0,3.0,97,0.00,,,0.00,Wunderground v.1.15,2013-04-02 12:15:00,
2013-04-02 08:20:00,67.2,66.3,30.08,WNW,301,1.0,2.0,97,0.00,,,0.00,Wunderground v.1.15,2013-04-02 12:20:00,
2013-04-02 08:25:00,67.1,66.2,30.08,NNW,341,0.0,3.0,97,0.00,,,0.00,Wunderground v.1.15,2013-04-02 12:25:00,
2013-04-02 08:30:00,67.3,66.4,30.09,WNW,300,1.0,1.0,97,0.00,,,0.00,Wunderground v.1.15,2013-04-02 12:30:00,
2013-04-02 08:35:00,67.6,66.7,30.09,NE,56,0.0,2.0,97,0.00,,,0.00,Wunderground v.1.15,2013-04-02 12:35:00,
2013-04-02 08:40:00,67.8,66.9,30.09,NNE,17,0.0,0.0,97,0.00,,,0.00,Wunderground v.1.15,2013-04-02 12:40:00,
2013-04-02 08:45:00,67.7,66.8,30.09,NE,46,0.0,2.0,97,0.00,,,0.00,Wunderground v.1.15,2013-04-02 12:45:00,
2013-04-02 08:50:00,67.8,66.9,30.09,West,273,0.0,0.0,97,0.00,,,0.00,Wunderground v.1.15,2013-04-02 12:50:00,
2013-04-02 08:55:00,68.1,67.2,30.10,NNE,13,0.0,1.0,97,0.00,,,0.00,Wunderground v.1.15,2013-04-02 12:55:00,
2013-04-02 09:00:00,68.4,67.2,30.10,West,270,0.0,0.0,96,0.00,,,0.00,Wunderground v.1.15,2013-04-02 13:00:00,
2013-04-02 09:05:00,68.4,67.2,30.10,NW,322,0.0,1.0,96,0.00,,,0.00,Wunderground v.1.15,2013-04-02 13:05:00,
2013-04-02 09:10:00,68.6,67.4,30.10,West,270,0.0,0.0,96,0.00,,,0.00,Wunderground v.1.15,2013-04-02 13:10:00,
2013-04-02 09:15:00,69.1,67.6,30.10,West,274,0.0,4.0,95,0.00,,,0.00,Wunderground v.1.15,2013-04-02 13:15:00,
2013-04-02 09:20:00,69.7,67.9,30.10,West,276,0.0,1.0,94,0.00,,,0.00,Wunderground v.1.15,2013-04-02 13:20:00,
2013-04-02 09:25:00,70.1,67.7,30.10,NNW,347,0.0,3.0,92,0.00,,,0.00,Wunderground v.1.15,2013-04-02 13:25:00,
2013-04-02 09:30:00,70.5,67.4,30.11,NNE,32,0.0,1.0,90,0.00,,,0.00,Wunderground v.1.15,2013-04-02 13:30:00,
2013-04-02 09:35:00,70.8,67.4,30.10,WNW,303,0.0,2.0,89,0.00,,,0.00,Wunderground v.1.15,2013-04-02 13:35:00,
2013-04-02 09:40:00,71.1,67.4,30.11,West,276,0.0,2.0,88,0.00,,,0.00,Wunderground v.1.15,2013-04-02 13:40:00,
2013-04-02 09:45:00,71.5,67.8,30.10,NNE,27,0.0,2.0,88,0.00,,,0.00,Wunderground v.1.15,2013-04-02 13:45:00,
2013-04-02 09:50:00,72.0,67.9,30.10,NNE,22,1.0,1.0,87,0.00,,,0.00,Wunderground v.1.15,2013-04-02 13:50:00,
2013-04-02 09:55:00,72.3,67.9,30.10,NW,324,0.0,6.0,86,0.00,,,0.00,Wunderground v.1.15,2013-04-02 13:55:00,
2013-04-02 10:00:00,72.7,68.3,30.10,NE,39,0.0,0.0,86,0.00,,,0.00,Wunderground v.1.15,2013-04-02 14:00:00,
2013-04-02 10:05:00,73.2,68.4,30.10,NNW,345,0.0,2.0,85,0.00,,,0.00,Wunderground v.1.15,2013-04-02 14:05:00,
2013-04-02 10:10:00,73.7,68.6,30.11,West,263,0.0,1.0,84,0.00,,,0.00,Wunderground v.1.15,2013-04-02 14:10:00,
2013-04-02 10:15:00,74.0,68.2,30.11,WNW,289,0.0,3.0,82,0.00,,,0.00,Wunderground v.1.15,2013-04-02 14:15:00,
2013-04-02 10:20:00,74.0,68.2,30.11,WNW,293,1.0,3.0,82,0.00,,,0.00,Wunderground v.1.15,2013-04-02 14:20:00,
2013-04-02 10:25:00,74.4,68.5,30.11,NW,319,0.0,3.0,82,0.00,,,0.00,Wunderground v.1.15,2013-04-02 14:25:00,
2013-04-02 10:30:00,75.0,68.4,30.10,North,359,1.0,3.0,80,0.00,,,0.00,Wunderground v.1.15,2013-04-02 14:30:00,
2013-04-02 10:35:00,75.5,68.5,30.11,NE,46,0.0,3.0,79,0.00,,,0.00,Wunderground v.1.15,2013-04-02 14:35:00,
2013-04-02 10:41:00,75.9,68.5,30.11,NNE,16,0.0,1.0,78,0.00,,,0.00,Wunderground v.1.15,2013-04-02 14:41:00,
2013-04-02 10:46:00,76.4,67.9,30.10,NNE,23,0.0,3.0,75,0.00,,,0.00,Wunderground v.1.15,2013-04-02 14:46:00,
2013-04-02 10:51:00,77.0,68.1,30.10,NE,37,0.0,3.0,74,0.00,,,0.00,Wunderground v.1.15,2013-04-02 14:51:00,
2013-04-02 10:56:00,77.3,66.7,30.10,NNE,15,5.0,6.0,70,0.00,,,0.00,Wunderground v.1.15,2013-04-02 14:56:00,
2013-04-02 11:01:00,77.6,66.2,30.10,NE,39,0.0,4.0,68,0.00,,,0.00,Wunderground v.1.15,2013-04-02 15:01:00,
2013-04-02 11:06:00,77.9,66.5,30.10,NNE,27,0.0,6.0,68,0.00,,,0.00,Wunderground v.1.15,2013-04-02 15:06:00,
2013-04-02 11:11:00,78.1,65.8,30.10,ENE,65,0.0,5.0,66,0.00,,,0.00,Wunderground v.1.15,2013-04-02 15:11:00,
2013-04-02 11:16:00,78.2,65.9,30.10,NNW,327,0.0,5.0,66,0.00,,,0.00,Wunderground v.1.15,2013-04-02 15:16:00,
2013-04-02 11:21:00,78.3,66.0,30.10,WNW,288,1.0,4.0,66,0.00,,,0.00,Wunderground v.1.15,2013-04-02 15:21:00,
2013-04-02 11:26:00,78.4,66.5,30.10,NE,41,0.0,4.0,67,0.00,,,0.00,Wunderground v.1.15,2013-04-02 15:26:00,
2013-04-02 11:32:00,78.7,66.4,30.10,NNE,32,0.0,2.0,66,0.00,,,0.00,Wunderground v.1.15,2013-04-02 15:32:00,
2013-04-02 11:37:00,79.1,63.1,30.10,NNE,32,0.0,2.0,58,0.00,,,0.00,Wunderground v.1.15,2013-04-02 15:37:00,
2013-04-02 11:42:00,79.7,64.6,30.11,NNE,33,3.0,3.0,60,0.00,,,0.00,Wunderground v.1.15,2013-04-02 15:42:00,
2013-04-02 11:47:00,79.6,65.0,30.11,NNE,17,0.0,5.0,61,0.00,,,0.00,Wunderground v.1.15,2013-04-02 15:47:00,
2013-04-02 11:52:00,79.8,61.7,30.11,West,271,4.0,4.0,54,0.00,,,0.00,Wunderground v.1.15,2013-04-02 15:52:00,
2013-04-02 11:58:00,79.9,63.8,30.11,WNW,290,0.0,4.0,58,0.00,,,0.00,Wunderground v.1.15,2013-04-02 15:58:00,
2013-04-02 12:03:00,80.3,64.2,30.11,NW,304,2.0,2.0,58,0.00,,,0.00,Wunderground v.1.15,2013-04-02 16:03:00,
2013-04-02 12:08:00,80.0,64.9,30.11,North,1,2.0,3.0,60,0.00,,,0.00,Wunderground v.1.15,2013-04-02 16:08:00,
2013-04-02 12:13:00,80.4,64.3,30.11,SW,214,0.0,1.0,58,0.00,,,0.00,Wunderground v.1.15,2013-04-02 16:13:00,
2013-04-02 12:19:00,80.6,64.9,30.10,West,267,0.0,7.0,59,0.00,,,0.00,Wunderground v.1.15,2013-04-02 16:19:00,
2013-04-02 12:24:00,80.2,64.1,30.11,West,276,3.0,6.0,58,0.00,,,0.00,Wunderground v.1.15,2013-04-02 16:24:00,
2013-04-02 12:29:00,79.8,65.2,30.10,West,263,0.0,6.0,61,0.00,,,0.00,Wunderground v.1.15,2013-04-02 16:29:00,
2013-04-02 12:35:00,80.9,64.7,30.10,West,269,0.0,3.0,58,0.00,,,0.00,Wunderground v.1.15,2013-04-02 16:35:00,
2013-04-02 12:40:00,81.5,65.3,30.10,NNW,345,0.0,1.0,58,0.00,,,0.00,Wunderground v.1.15,2013-04-02 16:40:00,
2013-04-02 12:45:00,81.1,64.4,30.10,West,277,1.0,4.0,57,0.00,,,0.00,Wunderground v.1.15,2013-04-02 16:45:00,
2013-04-02 12:50:00,80.5,64.9,30.09,North,356,0.0,5.0,59,0.00,,,0.00,Wunderground v.1.15,2013-04-02 16:50:00,
2013-04-02 12:55:00,81.2,64.5,30.09,WSW,252,0.0,5.0,57,0.00,,,0.00,Wunderground v.1.15,2013-04-02 16:55:00,
2013-04-02 13:00:00,81.4,64.7,30.09,NE,46,2.0,2.0,57,0.00,,,0.00,Wunderground v.1.15,2013-04-02 17:00:00,
2013-04-02 13:05:00,81.7,64.5,30.09,WSW,256,2.0,2.0,56,0.00,,,0.00,Wunderground v.1.15,2013-04-02 17:05:00,
2013-04-02 13:10:00,82.2,64.9,30.08,East,91,3.0,4.0,56,0.00,,,0.00,Wunderground v.1.15,2013-04-02 17:10:00,
2013-04-02 13:15:00,82.4,64.1,30.08,NE,37,1.0,4.0,54,0.00,,,0.00,Wunderground v.1.15,2013-04-02 17:15:00,
2013-04-02 13:20:00,82.5,64.2,30.08,North,11,0.0,1.0,54,0.00,,,0.00,Wunderground v.1.15,2013-04-02 17:20:00,
2013-04-02 13:26:00,82.0,62.1,30.08,SSW,198,0.0,4.0,51,0.00,,,0.00,Wunderground v.1.15,2013-04-02 17:26:00,
2013-04-02 13:31:00,81.7,62.9,30.07,WNW,285,3.0,5.0,53,0.00,,,0.00,Wunderground v.1.15,2013-04-02 17:31:00,
2013-04-02 13:36:00,81.4,62.6,30.07,West,277,4.0,5.0,53,0.00,,,0.00,Wunderground v.1.15,2013-04-02 17:36:00,
2013-04-02 13:41:00,81.1,62.3,30.07,WSW,258,3.0,4.0,53,0.00,,,0.00,Wunderground v.1.15,2013-04-02 17:41:00,
2013-04-02 13:46:00,81.0,63.3,30.06,West,266,0.0,5.0,55,0.00,,,0.00,Wunderground v.1.15,2013-04-02 17:46:00,
2013-04-02 13:51:00,81.9,64.7,30.07,NE,51,1.0,1.0,56,0.00,,,0.00,Wunderground v.1.15,2013-04-02 17:51:00,
2013-04-02 13:56:00,83.7,64.2,30.06,WNW,301,2.0,3.0,52,0.00,,,0.00,Wunderground v.1.15,2013-04-02 17:56:00,
2013-04-02 14:01:00,83.3,64.4,30.06,West,273,1.0,2.0,53,0.00,,,0.00,Wunderground v.1.15,2013-04-02 18:01:00,
2013-04-02 14:07:00,83.4,63.9,30.06,NE,46,0.0,4.0,52,0.00,,,0.00,Wunderground v.1.15,2013-04-02 18:07:00,
2013-04-02 14:12:00,84.5,63.8,30.06,WNW,300,1.0,5.0,50,0.00,,,0.00,Wunderground v.1.15,2013-04-02 18:12:00,
2013-04-02 14:17:00,83.8,63.7,30.06,East,81,0.0,5.0,51,0.00,,,0.00,Wunderground v.1.15,2013-04-02 18:17:00,
2013-04-02 14:22:00,83.6,63.0,30.06,WSW,249,1.0,4.0,50,0.00,,,0.00,Wunderground v.1.15,2013-04-02 18:22:00,
2013-04-02 14:28:00,83.9,62.7,30.05,SW,229,0.0,4.0,49,0.00,,,0.00,Wunderground v.1.15,2013-04-02 18:28:00,
2013-04-02 14:33:00,84.6,62.7,30.05,West,267,0.0,3.0,48,0.00,,,0.00,Wunderground v.1.15,2013-04-02 18:33:00,
2013-04-02 14:38:00,84.7,62.8,30.05,SSE,162,0.0,4.0,48,0.00,,,0.00,Wunderground v.1.15,2013-04-02 18:38:00,
2013-04-02 14:43:00,84.7,64.6,30.05,NE,37,0.0,3.0,51,0.00,,,0.00,Wunderground v.1.15,2013-04-02 18:43:00,
2013-04-02 14:49:00,85.4,67.9,30.05,East,81,4.0,4.0,56,0.00,,,0.00,Wunderground v.1.15,2013-04-02 18:49:00,
2013-04-02 14:54:00,85.4,66.9,30.05,NE,46,0.0,4.0,54,0.00,,,0.00,Wunderground v.1.15,2013-04-02 18:54:00,
2013-04-02 14:59:00,85.4,66.9,30.05,NNE,28,2.0,9.0,54,0.00,,,0.00,Wunderground v.1.15,2013-04-02 18:59:00,
2013-04-02 15:04:00,85.8,67.2,30.05,East,86,1.0,4.0,54,0.00,,,0.00,Wunderground v.1.15,2013-04-02 19:04:00,
2013-04-02 15:09:00,85.5,67.5,30.04,ENE,72,0.0,4.0,55,0.00,,,0.00,Wunderground v.1.15,2013-04-02 19:09:00,
2013-04-02 15:14:00,86.0,67.4,30.04,ESE,102,3.0,3.0,54,0.00,,,0.00,Wunderground v.1.15,2013-04-02 19:14:00,
2013-04-02 15:19:00,85.8,66.7,30.04,ENE,63,2.0,6.0,53,0.00,,,0.00,Wunderground v.1.15,2013-04-02 19:19:00,
2013-04-02 15:24:00,85.5,66.4,30.04,ESE,111,1.0,3.0,53,0.00,,,0.00,Wunderground v.1.15,2013-04-02 19:24:00,
2013-04-02 15:29:00,85.4,67.4,30.03,ENE,67,0.0,3.0,55,0.00,,,0.00,Wunderground v.1.15,2013-04-02 19:29:00,
2013-04-02 15:34:00,85.0,66.5,30.03,NNE,24,0.0,3.0,54,0.00,,,0.00,Wunderground v.1.15,2013-04-02 19:34:00,
2013-04-02 15:39:00,84.8,66.8,30.03,SE,125,1.0,4.0,55,0.00,,,0.00,Wunderground v.1.15,2013-04-02 19:39:00,
2013-04-02 15:44:00,84.6,66.7,30.03,East,84,5.0,7.0,55,0.00,,,0.00,Wunderground v.1.15,2013-04-02 19:44:00,
2013-04-02 15:49:00,84.4,66.5,30.03,SSE,159,2.0,7.0,55,0.00,,,0.00,Wunderground v.1.15,2013-04-02 19:49:00,
2013-04-02 15:54:00,83.5,65.6,30.03,West,273,0.0,6.0,55,0.00,,,0.00,Wunderground v.1.15,2013-04-02 19:54:00,
2013-04-02 16:00:00,82.9,66.1,30.03,East,83,0.0,6.0,57,0.00,,,0.00,Wunderground v.1.15,2013-04-02 20:00:00,
2013-04-02 16:05:00,83.5,67.2,30.03,ESE,105,0.0,4.0,58,0.00,,,0.00,Wunderground v.1.15,2013-04-02 20:05:00,
2013-04-02 16:10:00,83.7,66.8,30.03,NNW,338,0.0,1.0,57,0.00,,,0.00,Wunderground v.1.15,2013-04-02 20:10:00,
2013-04-02 16:15:00,84.1,66.7,30.03,SSE,149,2.0,2.0,56,0.00,,,0.00,Wunderground v.1.15,2013-04-02 20:15:00,
2013-04-02 16:20:00,84.3,66.4,30.03,SW,225,0.0,1.0,55,0.00,,,0.00,Wunderground v.1.15,2013-04-02 20:20:00,
2013-04-02 16:25:00,84.7,66.7,30.03,ESE,122,0.0,6.0,55,0.00,,,0.00,Wunderground v.1.15,2013-04-02 20:25:00,
2013-04-02 16:30:00,85.1,66.6,30.03,ENE,69,0.0,1.0,54,0.00,,,0.00,Wunderground v.1.15,2013-04-02 20:30:00,
2013-04-02 16:35:00,84.9,67.5,30.03,SE,134,0.0,5.0,56,0.00,,,0.00,Wunderground v.1.15,2013-04-02 20:35:00,
2013-04-02 16:40:00,85.4,66.9,30.02,East,85,0.0,2.0,54,0.00,,,0.00,Wunderground v.1.15,2013-04-02 20:40:00,
2013-04-02 16:45:00,85.3,66.2,30.02,East,100,0.0,5.0,53,0.00,,,0.00,Wunderground v.1.15,2013-04-02 20:45:00,
2013-04-02 16:50:00,85.2,66.7,30.02,East,97,3.0,6.0,54,0.00,,,0.00,Wunderground v.1.15,2013-04-02 20:50:00,
2013-04-02 16:55:00,84.4,65.9,30.02,ENE,60,1.0,6.0,54,0.00,,,0.00,Wunderground v.1.15,2013-04-02 20:55:00,
2013-04-02 17:01:00,84.1,66.2,30.02,ENE,77,0.0,7.0,55,0.00,,,0.00,Wunderground v.1.15,2013-04-02 21:01:00,
2013-04-02 17:06:00,84.4,66.5,30.02,ENE,67,1.0,7.0,55,0.00,,,0.00,Wunderground v.1.15,2013-04-02 21:06:00,
2013-04-02 17:11:00,84.6,66.1,30.02,East,89,0.0,4.0,54,0.00,,,0.00,Wunderground v.1.15,2013-04-02 21:11:00,
2013-04-02 17:16:00,84.3,66.4,30.02,ENE,70,0.0,5.0,55,0.00,,,0.00,Wunderground v.1.15,2013-04-02 21:16:00,
2013-04-02 17:21:00,84.1,66.2,30.02,NNE,32,0.0,3.0,55,0.00,,,0.00,Wunderground v.1.15,2013-04-02 21:21:00,
2013-04-02 17:27:00,84.3,66.4,30.02,NE,39,1.0,3.0,55,0.00,,,0.00,Wunderground v.1.15,2013-04-02 21:27:00,
2013-04-02 17:32:00,84.7,66.2,30.02,ESE,103,0.0,6.0,54,0.00,,,0.00,Wunderground v.1.15,2013-04-02 21:32:00,
2013-04-02 17:37:00,84.2,66.3,30.02,NNE,31,0.0,6.0,55,0.00,,,0.00,Wunderground v.1.15,2013-04-02 21:37:00,
2013-04-02 17:42:00,83.7,66.3,30.02,East,89,3.0,4.0,56,0.00,,,0.00,Wunderground v.1.15,2013-04-02 21:42:00,
2013-04-02 17:48:00,83.5,66.2,30.03,East,90,0.0,6.0,56,0.00,,,0.00,Wunderground v.1.15,2013-04-02 21:48:00,
2013-04-02 17:53:00,83.5,66.7,30.03,SE,125,0.0,6.0,57,0.00,,,0.00,Wunderground v.1.15,2013-04-02 21:53:00,
2013-04-02 17:58:00,83.1,66.8,30.03,East,97,1.0,10.0,58,0.00,,,0.00,Wunderground v.1.15,2013-04-02 21:58:00,
2013-04-02 18:03:00,82.6,66.8,30.03,East,86,0.0,5.0,59,0.00,,,0.00,Wunderground v.1.15,2013-04-02 22:03:00,
2013-04-02 18:08:00,82.2,66.0,30.03,East,89,1.0,6.0,58,0.00,,,0.00,Wunderground v.1.15,2013-04-02 22:08:00,
2013-04-02 18:13:00,81.9,66.2,30.03,East,84,0.0,6.0,59,0.00,,,0.00,Wunderground v.1.15,2013-04-02 22:13:00,
2013-04-02 18:18:00,81.9,66.2,30.03,East,98,2.0,6.0,59,0.00,,,0.00,Wunderground v.1.15,2013-04-02 22:18:00,
2013-04-02 18:23:00,81.8,67.0,30.03,ENE,64,0.0,6.0,61,0.00,,,0.00,Wunderground v.1.15,2013-04-02 22:23:00,
2013-04-02 18:28:00,81.6,66.4,30.03,ENE,72,2.0,7.0,60,0.00,,,0.00,Wunderground v.1.15,2013-04-02 22:28:00,
2013-04-02 18:33:00,81.3,66.6,30.03,East,89,4.0,7.0,61,0.00,,,0.00,Wunderground v.1.15,2013-04-02 22:33:00,
2013-04-02 18:39:00,81.2,66.0,30.03,ESE,103,1.0,7.0,60,0.00,,,0.00,Wunderground v.1.15,2013-04-02 22:39:00,
2013-04-02 18:44:00,80.6,66.4,30.03,ENE,61,1.0,6.0,62,0.00,,,0.00,Wunderground v.1.15,2013-04-02 22:44:00,
2013-04-02 18:49:00,80.0,66.3,30.03,ESE,103,1.0,7.0,63,0.00,,,0.00,Wunderground v.1.15,2013-04-02 22:49:00,
2013-04-02 18:55:00,79.5,66.7,30.04,NE,47,4.0,8.0,65,0.00,,,0.00,Wunderground v.1.15,2013-04-02 22:55:00,
2013-04-02 19:00:00,79.1,66.8,30.04,ENE,76,4.0,8.0,66,0.00,,,0.00,Wunderground v.1.15,2013-04-02 23:00:00,
2013-04-02 19:05:00,79.1,67.2,30.03,ENE,60,2.0,6.0,67,0.00,,,0.00,Wunderground v.1.15,2013-04-02 23:05:00,
2013-04-02 19:10:00,78.8,66.9,30.04,ESE,120,1.0,2.0,67,0.00,,,0.00,Wunderground v.1.15,2013-04-02 23:10:00,
2013-04-02 19:15:00,78.3,67.3,30.04,East,82,3.0,8.0,69,0.00,,,0.00,Wunderground v.1.15,2013-04-02 23:15:00,
2013-04-02 19:20:00,77.8,67.2,30.04,East,88,0.0,2.0,70,0.00,,,0.00,Wunderground v.1.15,2013-04-02 23:20:00,
2013-04-02 19:25:00,77.5,66.5,30.04,East,91,2.0,4.0,69,0.00,,,0.00,Wunderground v.1.15,2013-04-02 23:25:00,
2013-04-02 19:30:00,77.1,66.6,30.04,NE,41,1.0,2.0,70,0.00,,,0.00,Wunderground v.1.15,2013-04-02 23:30:00,
2013-04-02 19:35:00,76.9,66.4,30.04,ENE,70,0.0,5.0,70,0.00,,,0.00,Wunderground v.1.15,2013-04-02 23:35:00,
2013-04-02 19:40:00,76.5,66.0,30.05,ENE,68,1.0,2.0,70,0.00,,,0.00,Wunderground v.1.15,2013-04-02 23:40:00,
2013-04-02 19:45:00,76.2,66.1,30.05,ESE,112,5.0,6.0,71,0.00,,,0.00,Wunderground v.1.15,2013-04-02 23:45:00,
2013-04-02 19:50:00,76.1,66.0,30.05,East,79,1.0,1.0,71,0.00,,,0.00,Wunderground v.1.15,2013-04-02 23:50:00,
2013-04-02 19:55:00,76.0,65.5,30.05,ESE,104,3.0,5.0,70,0.00,,,0.00,Wunderground v.1.15,2013-04-02 23:55:00,
2013-04-02 20:02:00,75.7,65.6,30.05,ENE,76,1.0,4.0,71,0.00,,,0.00,Wunderground v.1.15,2013-04-03 00:02:00,
2013-04-02 20:07:00,75.6,65.9,30.05,East,93,0.0,4.0,72,0.00,,,0.00,Wunderground v.1.15,2013-04-03 00:07:00,
2013-04-02 20:12:00,75.5,65.8,30.05,NE,53,2.0,7.0,72,0.00,,,0.00,Wunderground v.1.15,2013-04-03 00:12:00,
2013-04-02 20:17:00,75.5,65.8,30.05,East,80,4.0,7.0,72,0.00,,,0.00,Wunderground v.1.15,2013-04-03 00:17:00,
2013-04-02 20:22:00,75.5,65.8,30.05,East,81,2.0,8.0,72,0.00,,,0.00,Wunderground v.1.15,2013-04-03 00:22:00,
2013-04-02 20:27:00,75.4,66.1,30.05,East,85,0.0,8.0,73,0.00,,,0.00,Wunderground v.1.15,2013-04-03 00:27:00,
2013-04-02 20:32:00,75.3,65.6,30.06,ENE,75,2.0,3.0,72,0.00,,,0.00,Wunderground v.1.15,2013-04-03 00:32:00,
2013-04-02 20:37:00,75.3,66.0,30.06,NE,39,0.0,8.0,73,0.00,,,0.00,Wunderground v.1.15,2013-04-03 00:37:00,
2013-04-02 20:42:00,75.2,65.9,30.06,East,98,0.0,4.0,73,0.00,,,0.00,Wunderground v.1.15,2013-04-03 00:42:00,
2013-04-02 20:48:00,75.2,66.3,30.06,East,101,0.0,5.0,74,0.00,,,0.00,Wunderground v.1.15,2013-04-03 00:48:00,
2013-04-02 20:53:00,75.0,66.1,30.06,ENE,60,0.0,3.0,74,0.00,,,0.00,Wunderground v.1.15,2013-04-03 00:53:00,
2013-04-02 20:59:00,74.9,66.1,30.07,ESE,106,0.0,3.0,74,0.00,,,0.00,Wunderground v.1.15,2013-04-03 00:59:00,
2013-04-02 21:04:00,74.8,66.3,30.07,East,87,2.0,4.0,75,0.00,,,0.00,Wunderground v.1.15,2013-04-03 01:04:00,
2013-04-02 21:09:00,74.8,66.3,30.07,ESE,102,0.0,5.0,75,0.00,,,0.00,Wunderground v.1.15,2013-04-03 01:09:00,
2013-04-02 21:14:00,74.7,66.6,30.07,East,80,0.0,4.0,76,0.00,,,0.00,Wunderground v.1.15,2013-04-03 01:14:00,
2013-04-02 21:19:00,74.7,66.6,30.07,East,81,0.0,5.0,76,0.00,,,0.00,Wunderground v.1.15,2013-04-03 01:19:00,
2013-04-02 21:24:00,74.6,66.9,30.08,East,93,1.0,2.0,77,0.00,,,0.00,Wunderground v.1.15,2013-04-03 01:24:00,
2013-04-02 21:29:00,74.6,66.9,30.08,ENE,68,2.0,3.0,77,0.00,,,0.00,Wunderground v.1.15,2013-04-03 01:29:00,
2013-04-02 21:34:00,74.6,66.9,30.08,ENE,66,0.0,3.0,77,0.00,,,0.00,Wunderground v.1.15,2013-04-03 01:34:00,
2013-04-02 21:39:00,74.6,66.9,30.08,ENE,78,1.0,5.0,77,0.00,,,0.00,Wunderground v.1.15,2013-04-03 01:39:00,
2013-04-02 21:44:00,74.5,67.2,30.08,East,85,1.0,4.0,78,0.00,,,0.00,Wunderground v.1.15,2013-04-03 01:44:00,
2013-04-02 21:49:00,74.4,67.1,30.08,East,82,0.0,4.0,78,0.00,,,0.00,Wunderground v.1.15,2013-04-03 01:49:00,
2013-04-02 21:54:00,74.3,67.0,30.08,East,89,1.0,1.0,78,0.00,,,0.00,Wunderground v.1.15,2013-04-03 01:54:00,
2013-04-02 21:59:00,74.2,66.9,30.08,East,92,0.0,2.0,78,0.00,,,0.00,Wunderground v.1.15,2013-04-03 01:59:00,
2013-04-02 22:05:00,74.1,67.2,30.09,East,95,0.0,2.0,79,0.00,,,0.00,Wunderground v.1.15,2013-04-03 02:05:00,
2013-04-02 22:10:00,74.0,67.1,30.09,East,82,0.0,0.0,79,0.00,,,0.00,Wunderground v.1.15,2013-04-03 02:10:00,
2013-04-02 22:15:00,73.9,67.0,30.09,ENE,73,1.0,2.0,79,0.00,,,0.00,Wunderground v.1.15,2013-04-03 02:15:00,
2013-04-02 22:20:00,73.9,67.0,30.09,ESE,114,0.0,0.0,79,0.00,,,0.00,Wunderground v.1.15,2013-04-03 02:20:00,
2013-04-02 22:25:00,73.8,66.9,30.09,East,96,0.0,4.0,79,0.00,,,0.00,Wunderground v.1.15,2013-04-03 02:25:00,
2013-04-02 22:30:00,73.6,66.7,30.09,East,96,0.0,0.0,79,0.00,,,0.00,Wunderground v.1.15,2013-04-03 02:30:00,
2013-04-02 22:35:00,73.6,66.7,30.09,ESE,105,0.0,1.0,79,0.00,,,0.00,Wunderground v.1.15,2013-04-03 02:35:00,
2013-04-02 22:40:00,73.6,66.7,30.09,ESE,106,0.0,0.0,79,0.00,,,0.00,Wunderground v.1.15,2013-04-03 02:40:00,
2013-04-02 22:45:00,73.5,66.6,30.09,East,86,0.0,0.0,79,0.00,,,0.00,Wunderground v.1.15,2013-04-03 02:45:00,
2013-04-02 22:50:00,73.4,66.9,30.09,ESE,106,0.0,0.0,80,0.00,,,0.00,Wunderground v.1.15,2013-04-03 02:50:00,
2013-04-02 22:55:00,73.3,66.8,30.09,ESE,105,0.0,0.0,80,0.00,,,0.00,Wunderground v.1.15,2013-04-03 02:55:00,
2013-04-02 23:00:00,73.2,66.7,30.09,ESE,105,0.0,0.0,80,0.00,,,0.00,Wunderground v.1.15,2013-04-03 03:00:00,
2013-04-02 23:06:00,73.1,66.6,30.09,ESE,106,0.0,0.0,80,0.00,,,0.00,Wunderground v.1.15,2013-04-03 03:06:00,
2013-04-02 23:11:00,73.0,66.8,30.09,East,93,0.0,1.0,81,0.00,,,0.00,Wunderground v.1.15,2013-04-03 03:11:00,
2013-04-02 23:16:00,73.1,66.9,30.09,East,93,0.0,1.0,81,0.00,,,0.00,Wunderground v.1.15,2013-04-03 03:16:00,
2013-04-02 23:22:00,72.9,66.7,30.09,East,95,0.0,0.0,81,0.00,,,0.00,Wunderground v.1.15,2013-04-03 03:22:00,
2013-04-02 23:27:00,72.8,66.6,30.09,East,95,0.0,0.0,81,0.00,,,0.00,Wunderground v.1.15,2013-04-03 03:27:00,
2013-04-02 23:32:00,72.7,66.9,30.08,East,95,0.0,0.0,82,0.00,,,0.00,Wunderground v.1.15,2013-04-03 03:32:00,
2013-04-02 23:37:00,72.6,66.8,30.09,East,95,0.0,0.0,82,0.00,,,0.00,Wunderground v.1.15,2013-04-03 03:37:00,
2013-04-02 23:42:00,72.7,67.2,30.09,ESE,107,0.0,0.0,83,0.00,,,0.00,Wunderground v.1.15,2013-04-03 03:42:00,
2013-04-02 23:47:00,72.6,66.8,30.09,ESE,107,0.0,0.0,82,0.00,,,0.00,Wunderground v.1.15,2013-04-03 03:47:00,
2013-04-02 23:52:00,72.3,66.8,30.09,ESE,107,0.0,0.0,83,0.00,,,0.00,Wunderground v.1.15,2013-04-03 03:52:00,
2013-04-02 23:57:00,72.1,66.6,30.08,ESE,108,0.0,0.0,83,0.00,,,0.00,Wunderground v.1.15,2013-04-03 03:57:00,